When you browse on this site, cookies collect data to enhance your experience and personalize the content and advertising you see.
Visit our Privacy Policy to learn more. By continuing to use the site, you agree to this use of cookies and data.
  • Em Portugal
  • Lista de países
  • Para 7 dias
  • Temperatura da água
  • Mapas de satélite
  • Mapa do tempo
  • Widgets de tempo
  • user-avatar
    Iniciar Sessão

    Previsão horária em Doregowice

    Hoje, 18 Fevereiro, Segunda-feira

    Tempo Temperatura Precipitação Vento Pressão Humidade
    00:00 +5°C° 0 mm 1 m/s 754 mmHg 96%
    01:00 +4°C° 0 mm 1 m/s 754 mmHg 96%
    02:00 +4°C° 0 mm 1 m/s 753 mmHg 96%
    03:00 +4°C° 0 mm 1 m/s 753 mmHg 96%
    04:00 +3°C° 0 mm 1 m/s 753 mmHg 97%
    05:00 +3°C° 0 mm 1 m/s 753 mmHg 97%
    06:00 +2°C° 0 mm 2 m/s 753 mmHg 97%
    07:00 +2°C° 0 mm 2 m/s 753 mmHg 97%
    08:00 +3°C° 0 mm 2 m/s 753 mmHg 94%
    09:00 +3°C° 0 mm 3 m/s 753 mmHg 91%
    10:00 +5°C° 0 mm 3 m/s 753 mmHg 87%
    11:00 +7°C° 0 mm 3 m/s 752 mmHg 82%
    12:00 +7°C° 0 mm 4 m/s 752 mmHg 76%
    13:00 +8°C° 0 mm 4 m/s 752 mmHg 71%
    14:00 +9°C° 0 mm 3 m/s 751 mmHg 71%
    15:00 +8°C° 0 mm 3 m/s 751 mmHg 70%
    16:00 +8°C° 0 mm 3 m/s 751 mmHg 70%
    17:00 +7°C° 0 mm 3 m/s 750 mmHg 74%
    18:00 +5°C° 0 mm 3 m/s 750 mmHg 77%
    19:00 +5°C° 0 mm 2 m/s 750 mmHg 81%
    20:00 +4°C° 0 mm 2 m/s 749 mmHg 82%
    21:00 +4°C° 0 mm 2 m/s 749 mmHg 82%
    22:00 +4°C° 0 mm 2 m/s 749 mmHg 83%
    23:00 +3°C° 0 mm 2 m/s 749 mmHg 83%

    Amanhã, 19 Fevereiro, Terça-feira

    Tempo Temperatura Precipitação Vento Pressão Humidade
    00:00 +3°C° 0 mm 2 m/s 748 mmHg 84%
    01:00 +3°C° 0 mm 2 m/s 748 mmHg 84%
    02:00 +2°C° 0 mm 3 m/s 748 mmHg 84%
    03:00 +1°C° 0 mm 3 m/s 747 mmHg 84%
    04:00 +1°C° 0 mm 3 m/s 747 mmHg 85%
    05:00 +1°C° 0 mm 3 m/s 746 mmHg 85%
    06:00 +1°C° 0 mm 3 m/s 746 mmHg 86%
    07:00 0°C° 0 mm 4 m/s 745 mmHg 87%
    08:00 +1°C° 0 mm 4 m/s 745 mmHg 83%
    09:00 +2°C° 0 mm 5 m/s 745 mmHg 80%
    10:00 +3°C° 0 mm 5 m/s 745 mmHg 76%
    11:00 +4°C° 0 mm 6 m/s 745 mmHg 74%
    12:00 +7°C° 0 mm 6 m/s 745 mmHg 72%
    13:00 +8°C° 0 mm 6 m/s 745 mmHg 70%
    14:00 +7°C° 0.2 mm 6 m/s 745 mmHg 75%
    15:00 +6°C° 0.2 mm 5 m/s 745 mmHg 80%
    16:00 +6°C° 0.2 mm 5 m/s 745 mmHg 84%
    17:00 +5°C° 0.2 mm 5 m/s 745 mmHg 85%
    18:00 +5°C° 0.2 mm 4 m/s 745 mmHg 85%
    19:00 +5°C° 0.2 mm 4 m/s 745 mmHg 85%
    20:00 +4°C° 0 mm 4 m/s 745 mmHg 84%
    21:00 +4°C° 0 mm 4 m/s 745 mmHg 84%
    22:00 +3°C° 0 mm 5 m/s 746 mmHg 83%
    23:00 +3°C° 0 mm 5 m/s 746 mmHg 83%

    Depois de amanhã, 20 Fevereiro, Quarta-feira

    Tempo Temperatura Precipitação Vento Pressão Humidade
    00:00 +3°C° 0 mm 5 m/s 746 mmHg 83%
    01:00 +2°C° 0 mm 5 m/s 746 mmHg 82%
    02:00 +2°C° 0 mm 5 m/s 746 mmHg 84%
    03:00 +2°C° 0 mm 5 m/s 746 mmHg 86%
    04:00 +1°C° 0 mm 5 m/s 746 mmHg 88%
    05:00 +1°C° 0.1 mm 5 m/s 747 mmHg 86%
    06:00 +2°C° 0.1 mm 5 m/s 747 mmHg 85%
    07:00 +2°C° 0.1 mm 5 m/s 747 mmHg 84%
    08:00 +2°C° 0.1 mm 5 m/s 747 mmHg 83%
    09:00 +2°C° 0.1 mm 5 m/s 748 mmHg 82%
    10:00 +3°C° 0.1 mm 5 m/s 748 mmHg 81%
    11:00 +3°C° 0.1 mm 5 m/s 748 mmHg 81%
    12:00 +3°C° 0.1 mm 5 m/s 749 mmHg 81%
    13:00 +3°C° 0.1 mm 5 m/s 749 mmHg 81%
    14:00 +5°C° 0.1 mm 5 m/s 749 mmHg 80%
    15:00 +5°C° 0.1 mm 5 m/s 749 mmHg 79%
    16:00 +5°C° 0.1 mm 4 m/s 750 mmHg 78%
    17:00 +4°C° 0 mm 4 m/s 750 mmHg 81%
    18:00 +4°C° 0 mm 4 m/s 750 mmHg 83%
    19:00 +4°C° 0 mm 3 m/s 750 mmHg 86%
    20:00 +4°C° 0.1 mm 4 m/s 750 mmHg 87%
    21:00 +4°C° 0.1 mm 4 m/s 750 mmHg 88%
    22:00 +4°C° 0.1 mm 4 m/s 750 mmHg 89%
    23:00 +4°C° 0.2 mm 4 m/s 750 mmHg 90%

    21 Fevereiro, Quinta-feira

    Tempo Temperatura Precipitação Vento Pressão Humidade
    00:00 +4°C° 0.2 mm 4 m/s 750 mmHg 90%
    01:00 +4°C° 0.2 mm 4 m/s 750 mmHg 91%
    02:00 +4°C° 0.2 mm 4 m/s 750 mmHg 91%
    03:00 +4°C° 0.2 mm 4 m/s 750 mmHg 90%
    04:00 +3°C° 0.2 mm 5 m/s 749 mmHg 90%
    05:00 +3°C° 0.7 mm 5 m/s 749 mmHg 90%
    06:00 +3°C° 0.7 mm 5 m/s 749 mmHg 91%
    07:00 +3°C° 0.7 mm 5 m/s 749 mmHg 91%
    08:00 +3°C° 0.3 mm 5 m/s 749 mmHg 91%
    09:00 +5°C° 0.3 mm 4 m/s 749 mmHg 91%
    10:00 +5°C° 0.3 mm 4 m/s 750 mmHg 90%
    11:00 +5°C° 0.4 mm 4 m/s 750 mmHg 90%
    12:00 +5°C° 0.4 mm 4 m/s 750 mmHg 90%
    13:00 +6°C° 0.4 mm 4 m/s 750 mmHg 89%
    14:00 +6°C° 0 mm 4 m/s 751 mmHg 89%
    15:00 +6°C° 0 mm 4 m/s 751 mmHg 88%
    16:00 +6°C° 0 mm 4 m/s 752 mmHg 87%
    17:00 +5°C° 0 mm 3 m/s 752 mmHg 89%
    18:00 +5°C° 0 mm 3 m/s 753 mmHg 91%
    19:00 +5°C° 0 mm 2 m/s 754 mmHg 93%
    20:00 +5°C° 0 mm 2 m/s 755 mmHg 92%
    21:00 +3°C° 0 mm 3 m/s 756 mmHg 90%
    22:00 +3°C° 0 mm 3 m/s 756 mmHg 88%
    23:00 +3°C° 0 mm 2 m/s 757 mmHg 87%

    22 Fevereiro, Sexta-feira

    Tempo Temperatura Precipitação Vento Pressão Humidade
    00:00 +2°C° 0 mm 2 m/s 758 mmHg 87%
    01:00 +1°C° 0 mm 2 m/s 758 mmHg 86%
    02:00 +1°C° 0 mm 2 m/s 759 mmHg 85%
    03:00 -1°C° 0 mm 2 m/s 759 mmHg 83%
    04:00 -1°C° 0 mm 2 m/s 760 mmHg 81%
    05:00 -1°C° 0 mm 2 m/s 761 mmHg 78%
    06:00 -2°C° 0 mm 2 m/s 761 mmHg 75%
    07:00 -2°C° 0 mm 2 m/s 762 mmHg 71%
    08:00 -1°C° 0 mm 2 m/s 763 mmHg 64%
    09:00 +1°C° 0 mm 2 m/s 764 mmHg 56%
    10:00 +2°C° 0 mm 2 m/s 764 mmHg 49%
    11:00 +3°C° 0 mm 2 m/s 765 mmHg 46%
    12:00 +3°C° 0 mm 2 m/s 765 mmHg 43%
    13:00 +4°C° 0 mm 2 m/s 765 mmHg 40%
    14:00 +5°C° 0 mm 1 m/s 766 mmHg 42%
    15:00 +5°C° 0 mm 1 m/s 766 mmHg 43%
    16:00 +5°C° 0 mm 1 m/s 766 mmHg 44%
    17:00 +4°C° 0 mm 1 m/s 766 mmHg 48%
    18:00 +3°C° 0 mm 1 m/s 766 mmHg 51%
    19:00 +2°C° 0 mm 1 m/s 767 mmHg 54%
    20:00 +1°C° 0 mm 2 m/s 767 mmHg 55%
    21:00 +1°C° 0 mm 2 m/s 767 mmHg 57%
    22:00 -1°C° 0 mm 2 m/s 767 mmHg 58%
    23:00 -1°C° 0 mm 2 m/s 767 mmHg 59%

    23 Fevereiro, Sábado

    Tempo Temperatura Precipitação Vento Pressão Humidade
    00:00 -1°C° 0 mm 2 m/s 767 mmHg 61%
    01:00 -1°C° 0 mm 2 m/s 767 mmHg 62%
    02:00 -1°C° 0 mm 2 m/s 767 mmHg 64%
    03:00 -1°C° 0 mm 3 m/s 766 mmHg 65%
    04:00 -1°C° 0 mm 3 m/s 766 mmHg 67%
    05:00 -1°C° 0 mm 3 m/s 766 mmHg 73%
    06:00 -1°C° 0 mm 3 m/s 766 mmHg 79%
    07:00 0°C° 0 mm 3 m/s 765 mmHg 85%
    08:00 +1°C° 0 mm 3 m/s 765 mmHg 85%
    09:00 +1°C° 0 mm 4 m/s 765 mmHg 84%
    10:00 +4°C° 0 mm 4 m/s 765 mmHg 84%
    11:00 +5°C° 0 mm 4 m/s 765 mmHg 83%
    12:00 +6°C° 0 mm 4 m/s 765 mmHg 81%
    13:00 +7°C° 0 mm 5 m/s 764 mmHg 80%
    14:00 +7°C° 0 mm 4 m/s 764 mmHg 81%
    15:00 +7°C° 0 mm 4 m/s 764 mmHg 81%
    16:00 +7°C° 0 mm 4 m/s 763 mmHg 82%
    17:00 +6°C° 0 mm 4 m/s 763 mmHg 85%
    18:00 +6°C° 0 mm 4 m/s 763 mmHg 89%
    19:00 +5°C° 0 mm 4 m/s 763 mmHg 92%
    20:00 +5°C° 0 mm 4 m/s 763 mmHg 92%
    21:00 +5°C° 0 mm 4 m/s 763 mmHg 92%
    22:00 +4°C° 0 mm 4 m/s 762 mmHg 93%
    23:00 +4°C° 0 mm 4 m/s 762 mmHg 93%
    Mostrar mais